owner,sensor,date,latitude,longitude,sea_water_turbidity,qcFlag 
SCCF RECON,ioos:station:SCCF:56:1,2017-10-01T04:00:00Z,26.4645,-82.1044,4.16,1111122 
SCCF RECON,ioos:station:SCCF:56:1,2017-10-01T05:00:00Z,26.4645,-82.1044,4.0,1111122 
SCCF RECON,ioos:station:SCCF:56:1,2017-10-01T06:00:00Z,26.4645,-82.1044,3.78,1111122 
SCCF RECON,ioos:station:SCCF:56:1,2017-10-01T07:00:00Z,26.4645,-82.1044,3.58,1111122 
SCCF RECON,ioos:station:SCCF:56:1,2017-10-01T08:00:00Z,26.4645,-82.1044,4.09,1111122 
SCCF RECON,ioos:station:SCCF:56:1,2017-10-01T09:00:00Z,26.4645,-82.1044,4.17,1111122 
SCCF RECON,ioos:station:SCCF:56:1,2017-10-01T10:00:00Z,26.4645,-82.1044,4.6,1111122 
SCCF RECON,ioos:station:SCCF:56:1,2017-10-01T11:00:00Z,26.4645,-82.1044,3.27,1111122 
SCCF RECON,ioos:station:SCCF:56:1,2017-10-01T12:00:00Z,26.4645,-82.1044,3.87,1111122 
SCCF RECON,ioos:station:SCCF:56:1,2017-10-01T13:00:00Z,26.4645,-82.1044,3.43,1111122 
SCCF RECON,ioos:station:SCCF:56:1,2017-10-01T14:00:00Z,26.4645,-82.1044,3.82,1111122 
SCCF RECON,ioos:station:SCCF:56:1,2017-10-01T15:00:00Z,26.4645,-82.1044,4.35,1111122 
SCCF RECON,ioos:station:SCCF:56:1,2017-10-01T16:00:00Z,26.4645,-82.1044,4.44,1111122 
SCCF RECON,ioos:station:SCCF:56:1,2017-10-01T17:00:00Z,26.4645,-82.1044,4.8,1111122 
SCCF RECON,ioos:station:SCCF:56:1,2017-10-01T18:00:00Z,26.4645,-82.1044,4.74,1111122 
SCCF RECON,ioos:station:SCCF:56:1,2017-10-01T19:00:00Z,26.4645,-82.1044,5.25,1111122 
SCCF RECON,ioos:station:SCCF:56:1,2017-10-01T20:00:00Z,26.4645,-82.1044,5.04,1111122 
SCCF RECON,ioos:station:SCCF:56:1,2017-10-01T21:00:00Z,26.4645,-82.1044,4.83,1111122 
SCCF RECON,ioos:station:SCCF:56:1,2017-10-01T22:00:00Z,26.4645,-82.1044,4.4,1111122 
SCCF RECON,ioos:station:SCCF:56:1,2017-10-02T04:00:00Z,26.4645,-82.1044,5.93,1111122 
SCCF RECON,ioos:station:SCCF:56:1,2017-10-02T05:00:00Z,26.4645,-82.1044,6.57,1111122 
SCCF RECON,ioos:station:SCCF:56:1,2017-10-02T07:00:00Z,26.4645,-82.1044,4.43,1111122 
SCCF RECON,ioos:station:SCCF:56:1,2017-10-02T08:00:00Z,26.4645,-82.1044,4.63,1111122 
SCCF RECON,ioos:station:SCCF:56:1,2017-10-02T09:00:00Z,26.4645,-82.1044,4.54,1111122 
SCCF RECON,ioos:station:SCCF:56:1,2017-10-02T10:00:00Z,26.4645,-82.1044,5.0,1111122 
SCCF RECON,ioos:station:SCCF:56:1,2017-10-02T11:00:00Z,26.4645,-82.1044,7.49,1111122 
SCCF RECON,ioos:station:SCCF:56:1,2017-10-02T12:00:00Z,26.4645,-82.1044,7.43,1111122 
SCCF RECON,ioos:station:SCCF:56:1,2017-10-02T13:00:00Z,26.4645,-82.1044,8.84,1111122 
SCCF RECON,ioos:station:SCCF:56:1,2017-10-02T14:00:00Z,26.4645,-82.1044,7.03,1111122 
SCCF RECON,ioos:station:SCCF:56:1,2017-10-02T15:00:00Z,26.4645,-82.1044,5.79,1111122 
SCCF RECON,ioos:station:SCCF:56:1,2017-10-02T16:00:00Z,26.4645,-82.1044,7.83,1111122 
SCCF RECON,ioos:station:SCCF:56:1,2017-10-02T17:00:00Z,26.4645,-82.1044,4.51,1111122 
SCCF RECON,ioos:station:SCCF:56:1,2017-10-02T18:00:00Z,26.4645,-82.1044,6.22,1111122 
SCCF RECON,ioos:station:SCCF:56:1,2017-10-02T19:00:00Z,26.4645,-82.1044,7.6,1111122 
SCCF RECON,ioos:station:SCCF:56:1,2017-10-02T20:00:00Z,26.4645,-82.1044,7.04,1111122 
SCCF RECON,ioos:station:SCCF:56:1,2017-10-02T21:00:00Z,26.4645,-82.1044,5.74,1111122 
SCCF RECON,ioos:station:SCCF:56:1,2017-10-02T22:00:00Z,26.4645,-82.1044,5.84,1111122 
SCCF RECON,ioos:station:SCCF:56:1,2017-10-03T04:00:00Z,26.4645,-82.1044,9.86,1111122 
SCCF RECON,ioos:station:SCCF:56:1,2017-10-03T05:00:00Z,26.4645,-82.1044,8.23,1111122 
SCCF RECON,ioos:station:SCCF:56:1,2017-10-03T06:00:00Z,26.4645,-82.1044,6.4,1111122 
SCCF RECON,ioos:station:SCCF:56:1,2017-10-03T07:00:00Z,26.4645,-82.1044,5.85,1111122 
SCCF RECON,ioos:station:SCCF:56:1,2017-10-03T08:00:00Z,26.4645,-82.1044,5.92,1111122 
SCCF RECON,ioos:station:SCCF:56:1,2017-10-03T09:00:00Z,26.4645,-82.1044,4.76,1111122 
SCCF RECON,ioos:station:SCCF:56:1,2017-10-03T12:00:00Z,26.4645,-82.1044,13.22,1111122 
SCCF RECON,ioos:station:SCCF:56:1,2017-10-03T13:00:00Z,26.4645,-82.1044,12.49,1111122 
SCCF RECON,ioos:station:SCCF:56:1,2017-10-03T14:00:00Z,26.4645,-82.1044,14.4,1111122 
SCCF RECON,ioos:station:SCCF:56:1,2017-10-03T15:00:00Z,26.4645,-82.1044,8.9,1111122 
SCCF RECON,ioos:station:SCCF:56:1,2017-10-03T16:00:00Z,26.4645,-82.1044,11.19,1111122 
SCCF RECON,ioos:station:SCCF:56:1,2017-10-03T17:00:00Z,26.4645,-82.1044,7.34,1111122 
SCCF RECON,ioos:station:SCCF:56:1,2017-10-03T18:00:00Z,26.4645,-82.1044,5.93,1111122 
SCCF RECON,ioos:station:SCCF:56:1,2017-10-03T19:00:00Z,26.4645,-82.1044,6.35,1111122 
SCCF RECON,ioos:station:SCCF:56:1,2017-10-03T20:00:00Z,26.4645,-82.1044,9.27,1111122 
SCCF RECON,ioos:station:SCCF:56:1,2017-10-03T21:00:00Z,26.4645,-82.1044,6.94,1111122 
SCCF RECON,ioos:station:SCCF:56:1,2017-10-03T22:00:00Z,26.4645,-82.1044,6.05,1111122 
SCCF RECON,ioos:station:SCCF:56:1,2017-10-04T04:00:00Z,26.4645,-82.1044,13.76,1111122 
SCCF RECON,ioos:station:SCCF:56:1,2017-10-04T05:00:00Z,26.4645,-82.1044,12.62,1111122 
SCCF RECON,ioos:station:SCCF:56:1,2017-10-04T06:00:00Z,26.4645,-82.1044,10.32,1111122 
SCCF RECON,ioos:station:SCCF:56:1,2017-10-04T07:00:00Z,26.4645,-82.1044,7.8,1111122 
SCCF RECON,ioos:station:SCCF:56:1,2017-10-04T08:00:00Z,26.4645,-82.1044,9.81,1111122 
SCCF RECON,ioos:station:SCCF:56:1,2017-10-04T09:00:00Z,26.4645,-82.1044,7.77,1111122 
SCCF RECON,ioos:station:SCCF:56:1,2017-10-04T11:00:00Z,26.4645,-82.1044,5.87,1111122 
SCCF RECON,ioos:station:SCCF:56:1,2017-10-04T12:00:00Z,26.4645,-82.1044,9.4,1111122 
SCCF RECON,ioos:station:SCCF:56:1,2017-10-04T13:00:00Z,26.4645,-82.1044,8.35,1111122 
SCCF RECON,ioos:station:SCCF:56:1,2017-10-04T14:00:00Z,26.4645,-82.1044,12.9,1111122 
SCCF RECON,ioos:station:SCCF:56:1,2017-10-04T15:00:00Z,26.4645,-82.1044,15.22,1111122 
SCCF RECON,ioos:station:SCCF:56:1,2017-10-04T16:00:00Z,26.4645,-82.1044,14.36,1111122 
SCCF RECON,ioos:station:SCCF:56:1,2017-10-04T17:00:00Z,26.4645,-82.1044,11.6,1111122 
SCCF RECON,ioos:station:SCCF:56:1,2017-10-04T18:00:00Z,26.4645,-82.1044,11.39,1111122 
SCCF RECON,ioos:station:SCCF:56:1,2017-10-04T19:00:00Z,26.4645,-82.1044,7.48,1111122 
SCCF RECON,ioos:station:SCCF:56:1,2017-10-04T20:00:00Z,26.4645,-82.1044,10.44,1111122 
SCCF RECON,ioos:station:SCCF:56:1,2017-10-04T21:00:00Z,26.4645,-82.1044,6.99,1111122 
SCCF RECON,ioos:station:SCCF:56:1,2017-10-04T22:00:00Z,26.4645,-82.1044,6.0,1111122 
SCCF RECON,ioos:station:SCCF:56:1,2017-10-05T04:00:00Z,26.4645,-82.1044,8.81,1111122 
SCCF RECON,ioos:station:SCCF:56:1,2017-10-05T05:00:00Z,26.4645,-82.1044,9.56,1111122 
SCCF RECON,ioos:station:SCCF:56:1,2017-10-05T06:00:00Z,26.4645,-82.1044,9.01,1111122 
SCCF RECON,ioos:station:SCCF:56:1,2017-10-05T07:00:00Z,26.4645,-82.1044,7.54,1111122 
SCCF RECON,ioos:station:SCCF:56:1,2017-10-05T08:00:00Z,26.4645,-82.1044,6.8,1111122 
SCCF RECON,ioos:station:SCCF:56:1,2017-10-05T09:00:00Z,26.4645,-82.1044,8.55,1111122 
SCCF RECON,ioos:station:SCCF:56:1,2017-10-05T10:00:00Z,26.4645,-82.1044,4.8,1111122 
SCCF RECON,ioos:station:SCCF:56:1,2017-10-05T11:00:00Z,26.4645,-82.1044,4.27,1111122 
SCCF RECON,ioos:station:SCCF:56:1,2017-10-05T12:00:00Z,26.4645,-82.1044,4.21,1111122 
SCCF RECON,ioos:station:SCCF:56:1,2017-10-05T13:00:00Z,26.4645,-82.1044,5.61,1111122 
SCCF RECON,ioos:station:SCCF:56:1,2017-10-05T14:00:00Z,26.4645,-82.1044,8.79,1111122 
SCCF RECON,ioos:station:SCCF:56:1,2017-10-05T15:00:00Z,26.4645,-82.1044,10.35,1111122 
SCCF RECON,ioos:station:SCCF:56:1,2017-10-05T16:00:00Z,26.4645,-82.1044,11.21,1111122 
SCCF RECON,ioos:station:SCCF:56:1,2017-10-05T18:00:00Z,26.4645,-82.1044,8.9,1111122 
SCCF RECON,ioos:station:SCCF:56:1,2017-10-05T19:00:00Z,26.4645,-82.1044,9.01,1111122 
SCCF RECON,ioos:station:SCCF:56:1,2017-10-05T20:00:00Z,26.4645,-82.1044,8.42,1111122 
SCCF RECON,ioos:station:SCCF:56:1,2017-10-05T21:00:00Z,26.4645,-82.1044,6.64,1111122 
SCCF RECON,ioos:station:SCCF:56:1,2017-10-05T22:00:00Z,26.4645,-82.1044,8.28,1111122 
SCCF RECON,ioos:station:SCCF:56:1,2017-10-06T04:00:00Z,26.4645,-82.1044,7.24,1111122 
SCCF RECON,ioos:station:SCCF:56:1,2017-10-06T05:00:00Z,26.4645,-82.1044,8.56,1111122 
SCCF RECON,ioos:station:SCCF:56:1,2017-10-06T06:00:00Z,26.4645,-82.1044,5.41,1111122 
SCCF RECON,ioos:station:SCCF:56:1,2017-10-06T07:00:00Z,26.4645,-82.1044,6.51,1111122 
SCCF RECON,ioos:station:SCCF:56:1,2017-10-06T08:00:00Z,26.4645,-82.1044,6.2,1111122 
SCCF RECON,ioos:station:SCCF:56:1,2017-10-06T09:00:00Z,26.4645,-82.1044,4.2,1111122 
SCCF RECON,ioos:station:SCCF:56:1,2017-10-06T10:00:00Z,26.4645,-82.1044,5.4,1111122 
SCCF RECON,ioos:station:SCCF:56:1,2017-10-06T11:00:00Z,26.4645,-82.1044,5.9,1111122 
SCCF RECON,ioos:station:SCCF:56:1,2017-10-06T12:00:00Z,26.4645,-82.1044,4.72,1111122 
SCCF RECON,ioos:station:SCCF:56:1,2017-10-06T13:00:00Z,26.4645,-82.1044,3.92,1111122 
SCCF RECON,ioos:station:SCCF:56:1,2017-10-06T14:00:00Z,26.4645,-82.1044,4.7,1111122 
SCCF RECON,ioos:station:SCCF:56:1,2017-10-06T15:00:00Z,26.4645,-82.1044,5.98,1111122 
SCCF RECON,ioos:station:SCCF:56:1,2017-10-06T16:00:00Z,26.4645,-82.1044,4.65,1111122 
SCCF RECON,ioos:station:SCCF:56:1,2017-10-06T17:00:00Z,26.4645,-82.1044,3.59,1111122 
SCCF RECON,ioos:station:SCCF:56:1,2017-10-06T18:00:00Z,26.4645,-82.1044,3.26,1111122 
SCCF RECON,ioos:station:SCCF:56:1,2017-10-06T19:00:00Z,26.4645,-82.1044,4.0,1111122 
SCCF RECON,ioos:station:SCCF:56:1,2017-10-06T20:00:00Z,26.4645,-82.1044,3.54,1111122 
SCCF RECON,ioos:station:SCCF:56:1,2017-10-06T21:00:00Z,26.4645,-82.1044,3.74,1111122 
SCCF RECON,ioos:station:SCCF:56:1,2017-10-06T22:00:00Z,26.4645,-82.1044,4.11,1111122 
SCCF RECON,ioos:station:SCCF:56:1,2017-10-07T04:00:00Z,26.4645,-82.1044,2.79,1111122 
SCCF RECON,ioos:station:SCCF:56:1,2017-10-07T05:00:00Z,26.4645,-82.1044,2.77,1111122 
SCCF RECON,ioos:station:SCCF:56:1,2017-10-07T06:00:00Z,26.4645,-82.1044,2.51,1111122 
SCCF RECON,ioos:station:SCCF:56:1,2017-10-07T07:00:00Z,26.4645,-82.1044,3.06,1111122 
SCCF RECON,ioos:station:SCCF:56:1,2017-10-07T08:00:00Z,26.4645,-82.1044,2.65,1111122 
SCCF RECON,ioos:station:SCCF:56:1,2017-10-07T09:00:00Z,26.4645,-82.1044,3.0,1111122 
SCCF RECON,ioos:station:SCCF:56:1,2017-10-07T10:00:00Z,26.4645,-82.1044,4.05,1111122 
SCCF RECON,ioos:station:SCCF:56:1,2017-10-07T11:00:00Z,26.4645,-82.1044,3.92,1111122 
SCCF RECON,ioos:station:SCCF:56:1,2017-10-07T12:00:00Z,26.4645,-82.1044,3.69,1111122 
SCCF RECON,ioos:station:SCCF:56:1,2017-10-07T13:00:00Z,26.4645,-82.1044,3.38,1111122 
SCCF RECON,ioos:station:SCCF:56:1,2017-10-07T14:00:00Z,26.4645,-82.1044,3.41,1111122 
SCCF RECON,ioos:station:SCCF:56:1,2017-10-07T15:00:00Z,26.4645,-82.1044,4.19,1111122 
SCCF RECON,ioos:station:SCCF:56:1,2017-10-07T16:00:00Z,26.4645,-82.1044,3.73,1111122 
SCCF RECON,ioos:station:SCCF:56:1,2017-10-07T17:00:00Z,26.4645,-82.1044,2.91,1111122 
SCCF RECON,ioos:station:SCCF:56:1,2017-10-07T18:00:00Z,26.4645,-82.1044,2.6,1111122 
SCCF RECON,ioos:station:SCCF:56:1,2017-10-07T19:00:00Z,26.4645,-82.1044,2.63,1111122 
SCCF RECON,ioos:station:SCCF:56:1,2017-10-07T20:00:00Z,26.4645,-82.1044,2.69,1111122 
SCCF RECON,ioos:station:SCCF:56:1,2017-10-07T21:00:00Z,26.4645,-82.1044,3.7,1111122 
SCCF RECON,ioos:station:SCCF:56:1,2017-10-07T22:00:00Z,26.4645,-82.1044,2.7,1111122 
SCCF RECON,ioos:station:SCCF:56:1,2017-10-08T04:00:00Z,26.4645,-82.1044,4.08,1111122 
SCCF RECON,ioos:station:SCCF:56:1,2017-10-08T05:00:00Z,26.4645,-82.1044,3.64,1111122 
SCCF RECON,ioos:station:SCCF:56:1,2017-10-08T06:00:00Z,26.4645,-82.1044,3.87,1111122 
SCCF RECON,ioos:station:SCCF:56:1,2017-10-08T07:00:00Z,26.4645,-82.1044,3.88,1111122 
SCCF RECON,ioos:station:SCCF:56:1,2017-10-08T08:00:00Z,26.4645,-82.1044,3.37,1111122 
SCCF RECON,ioos:station:SCCF:56:1,2017-10-08T09:00:00Z,26.4645,-82.1044,3.38,1111122 
SCCF RECON,ioos:station:SCCF:56:1,2017-10-08T10:00:00Z,26.4645,-82.1044,3.93,1111122 
SCCF RECON,ioos:station:SCCF:56:1,2017-10-08T11:00:00Z,26.4645,-82.1044,4.65,1111122 
SCCF RECON,ioos:station:SCCF:56:1,2017-10-08T12:00:00Z,26.4645,-82.1044,3.93,1111122 
SCCF RECON,ioos:station:SCCF:56:1,2017-10-08T13:00:00Z,26.4645,-82.1044,3.71,1111122 
SCCF RECON,ioos:station:SCCF:56:1,2017-10-08T14:00:00Z,26.4645,-82.1044,3.21,1111122 
SCCF RECON,ioos:station:SCCF:56:1,2017-10-08T15:00:00Z,26.4645,-82.1044,3.11,1111122 
SCCF RECON,ioos:station:SCCF:56:1,2017-10-08T16:00:00Z,26.4645,-82.1044,3.39,1111122 
SCCF RECON,ioos:station:SCCF:56:1,2017-10-08T17:00:00Z,26.4645,-82.1044,3.12,1111122 
SCCF RECON,ioos:station:SCCF:56:1,2017-10-08T18:00:00Z,26.4645,-82.1044,3.18,1111122 
SCCF RECON,ioos:station:SCCF:56:1,2017-10-08T19:00:00Z,26.4645,-82.1044,3.06,1111122 
SCCF RECON,ioos:station:SCCF:56:1,2017-10-08T20:00:00Z,26.4645,-82.1044,3.25,1111122 
SCCF RECON,ioos:station:SCCF:56:1,2017-10-08T21:00:00Z,26.4645,-82.1044,3.47,1111122 
SCCF RECON,ioos:station:SCCF:56:1,2017-10-08T22:00:00Z,26.4645,-82.1044,3.49,1111122 
SCCF RECON,ioos:station:SCCF:56:1,2017-10-09T04:00:00Z,26.4645,-82.1044,3.32,1111122 
SCCF RECON,ioos:station:SCCF:56:1,2017-10-09T05:00:00Z,26.4645,-82.1044,2.83,1111122 
SCCF RECON,ioos:station:SCCF:56:1,2017-10-09T06:00:00Z,26.4645,-82.1044,3.31,1111122 
SCCF RECON,ioos:station:SCCF:56:1,2017-10-09T07:00:00Z,26.4645,-82.1044,3.38,1111122 
SCCF RECON,ioos:station:SCCF:56:1,2017-10-09T08:00:00Z,26.4645,-82.1044,3.61,1111122 
SCCF RECON,ioos:station:SCCF:56:1,2017-10-09T09:00:00Z,26.4645,-82.1044,2.46,1111122 
SCCF RECON,ioos:station:SCCF:56:1,2017-10-09T10:00:00Z,26.4645,-82.1044,3.0,1111122 
SCCF RECON,ioos:station:SCCF:56:1,2017-10-09T11:00:00Z,26.4645,-82.1044,4.9,1111122 
SCCF RECON,ioos:station:SCCF:56:1,2017-10-09T12:00:00Z,26.4645,-82.1044,5.53,1111122 
SCCF RECON,ioos:station:SCCF:56:1,2017-10-09T13:00:00Z,26.4645,-82.1044,5.34,1111122 
SCCF RECON,ioos:station:SCCF:56:1,2017-10-09T14:00:00Z,26.4645,-82.1044,4.01,1111122 
SCCF RECON,ioos:station:SCCF:56:1,2017-10-09T15:00:00Z,26.4645,-82.1044,3.87,1111122 
SCCF RECON,ioos:station:SCCF:56:1,2017-10-09T16:00:00Z,26.4645,-82.1044,3.08,1111122 
SCCF RECON,ioos:station:SCCF:56:1,2017-10-09T18:00:00Z,26.4645,-82.1044,3.06,1111122 
SCCF RECON,ioos:station:SCCF:56:1,2017-10-09T19:00:00Z,26.4645,-82.1044,2.95,1111122 
SCCF RECON,ioos:station:SCCF:56:1,2017-10-09T20:00:00Z,26.4645,-82.1044,4.23,1111122 
SCCF RECON,ioos:station:SCCF:56:1,2017-10-09T21:00:00Z,26.4645,-82.1044,2.86,1111122 
SCCF RECON,ioos:station:SCCF:56:1,2017-10-09T22:00:00Z,26.4645,-82.1044,2.71,1111122 
SCCF RECON,ioos:station:SCCF:56:1,2017-10-10T04:00:00Z,26.4645,-82.1044,3.79,1111122 
SCCF RECON,ioos:station:SCCF:56:1,2017-10-10T05:00:00Z,26.4645,-82.1044,3.41,1111122 
SCCF RECON,ioos:station:SCCF:56:1,2017-10-10T06:00:00Z,26.4645,-82.1044,3.58,1111122 
SCCF RECON,ioos:station:SCCF:56:1,2017-10-10T07:00:00Z,26.4645,-82.1044,4.83,1111122 
SCCF RECON,ioos:station:SCCF:56:1,2017-10-10T08:00:00Z,26.4645,-82.1044,2.5,1111122 
SCCF RECON,ioos:station:SCCF:56:1,2017-10-10T09:00:00Z,26.4645,-82.1044,3.71,1111122 
SCCF RECON,ioos:station:SCCF:56:1,2017-10-10T10:00:00Z,26.4645,-82.1044,2.86,1111122 
SCCF RECON,ioos:station:SCCF:56:1,2017-10-10T11:00:00Z,26.4645,-82.1044,3.21,1111122 
SCCF RECON,ioos:station:SCCF:56:1,2017-10-10T12:00:00Z,26.4645,-82.1044,3.77,1111122 
SCCF RECON,ioos:station:SCCF:56:1,2017-10-10T13:00:00Z,26.4645,-82.1044,3.99,1111122 
SCCF RECON,ioos:station:SCCF:56:1,2017-10-10T14:00:00Z,26.4645,-82.1044,3.72,1111122 
SCCF RECON,ioos:station:SCCF:56:1,2017-10-10T15:00:00Z,26.4645,-82.1044,3.78,1111122 
SCCF RECON,ioos:station:SCCF:56:1,2017-10-10T16:00:00Z,26.4645,-82.1044,3.53,1111122 
SCCF RECON,ioos:station:SCCF:56:1,2017-10-10T17:00:00Z,26.4645,-82.1044,3.42,1111122 
SCCF RECON,ioos:station:SCCF:56:1,2017-10-10T18:00:00Z,26.4645,-82.1044,3.48,1111122 
SCCF RECON,ioos:station:SCCF:56:1,2017-10-10T19:00:00Z,26.4645,-82.1044,4.44,1111122 
SCCF RECON,ioos:station:SCCF:56:1,2017-10-10T20:00:00Z,26.4645,-82.1044,4.63,1111122 
SCCF RECON,ioos:station:SCCF:56:1,2017-10-10T21:00:00Z,26.4645,-82.1044,3.77,1111122 
SCCF RECON,ioos:station:SCCF:56:1,2017-10-10T22:00:00Z,26.4645,-82.1044,4.25,1111122 
SCCF RECON,ioos:station:SCCF:56:1,2017-10-11T04:00:00Z,26.4645,-82.1044,2.25,1111122 
SCCF RECON,ioos:station:SCCF:56:1,2017-10-11T05:00:00Z,26.4645,-82.1044,3.35,1111122 
SCCF RECON,ioos:station:SCCF:56:1,2017-10-11T06:00:00Z,26.4645,-82.1044,2.96,1111122 
SCCF RECON,ioos:station:SCCF:56:1,2017-10-11T07:00:00Z,26.4645,-82.1044,2.81,1111122 
SCCF RECON,ioos:station:SCCF:56:1,2017-10-11T08:00:00Z,26.4645,-82.1044,2.72,1111122 
SCCF RECON,ioos:station:SCCF:56:1,2017-10-11T09:00:00Z,26.4645,-82.1044,2.54,1111122 
SCCF RECON,ioos:station:SCCF:56:1,2017-10-11T10:00:00Z,26.4645,-82.1044,2.04,1111122 
SCCF RECON,ioos:station:SCCF:56:1,2017-10-11T11:00:00Z,26.4645,-82.1044,2.39,1111122 
SCCF RECON,ioos:station:SCCF:56:1,2017-10-11T12:00:00Z,26.4645,-82.1044,3.04,1111122 
SCCF RECON,ioos:station:SCCF:56:1,2017-10-11T13:00:00Z,26.4645,-82.1044,3.63,1111122 
SCCF RECON,ioos:station:SCCF:56:1,2017-10-11T14:00:00Z,26.4645,-82.1044,4.02,1111122 
SCCF RECON,ioos:station:SCCF:56:1,2017-10-11T15:00:00Z,26.4645,-82.1044,3.57,1111122 
SCCF RECON,ioos:station:SCCF:56:1,2017-10-11T16:00:00Z,26.4645,-82.1044,3.94,1111122 
SCCF RECON,ioos:station:SCCF:56:1,2017-10-11T17:00:00Z,26.4645,-82.1044,4.28,1111122 
SCCF RECON,ioos:station:SCCF:56:1,2017-10-11T18:00:00Z,26.4645,-82.1044,4.28,1111122 
SCCF RECON,ioos:station:SCCF:56:1,2017-10-11T19:00:00Z,26.4645,-82.1044,3.74,1111122 
SCCF RECON,ioos:station:SCCF:56:1,2017-10-11T20:00:00Z,26.4645,-82.1044,4.22,1111122 
SCCF RECON,ioos:station:SCCF:56:1,2017-10-11T21:00:00Z,26.4645,-82.1044,4.26,1111122 
SCCF RECON,ioos:station:SCCF:56:1,2017-10-11T22:00:00Z,26.4645,-82.1044,3.88,1111122 
SCCF RECON,ioos:station:SCCF:56:1,2017-10-12T05:00:00Z,26.4645,-82.1044,2.39,1111122 
SCCF RECON,ioos:station:SCCF:56:1,2017-10-12T06:00:00Z,26.4645,-82.1044,2.39,1111122 
SCCF RECON,ioos:station:SCCF:56:1,2017-10-12T07:00:00Z,26.4645,-82.1044,3.01,1111122 
SCCF RECON,ioos:station:SCCF:56:1,2017-10-12T08:00:00Z,26.4645,-82.1044,2.7,1111122 
SCCF RECON,ioos:station:SCCF:56:1,2017-10-12T09:00:00Z,26.4645,-82.1044,2.53,1111122 
SCCF RECON,ioos:station:SCCF:56:1,2017-10-12T10:00:00Z,26.4645,-82.1044,2.58,1111122 
SCCF RECON,ioos:station:SCCF:56:1,2017-10-12T11:00:00Z,26.4645,-82.1044,2.61,1111122 
SCCF RECON,ioos:station:SCCF:56:1,2017-10-12T12:00:00Z,26.4645,-82.1044,2.41,1111122 
SCCF RECON,ioos:station:SCCF:56:1,2017-10-12T13:00:00Z,26.4645,-82.1044,2.71,1111122 
SCCF RECON,ioos:station:SCCF:56:1,2017-10-12T14:00:00Z,26.4645,-82.1044,3.9,1111122 
SCCF RECON,ioos:station:SCCF:56:1,2017-10-12T15:00:00Z,26.4645,-82.1044,3.65,1111122 
SCCF RECON,ioos:station:SCCF:56:1,2017-10-12T16:00:00Z,26.4645,-82.1044,3.58,1111122 
SCCF RECON,ioos:station:SCCF:56:1,2017-10-12T17:00:00Z,26.4645,-82.1044,3.61,1111122 
SCCF RECON,ioos:station:SCCF:56:1,2017-10-12T18:00:00Z,26.4645,-82.1044,3.77,1111122 
SCCF RECON,ioos:station:SCCF:56:1,2017-10-12T19:00:00Z,26.4645,-82.1044,4.24,1111122 
SCCF RECON,ioos:station:SCCF:56:1,2017-10-12T20:00:00Z,26.4645,-82.1044,4.21,1111122 
SCCF RECON,ioos:station:SCCF:56:1,2017-10-12T21:00:00Z,26.4645,-82.1044,4.05,1111122 
SCCF RECON,ioos:station:SCCF:56:1,2017-10-12T22:00:00Z,26.4645,-82.1044,3.61,1111122 
SCCF RECON,ioos:station:SCCF:56:1,2017-10-13T04:00:00Z,26.4645,-82.1044,2.58,1111122 
SCCF RECON,ioos:station:SCCF:56:1,2017-10-13T05:00:00Z,26.4645,-82.1044,2.5,1111122 
SCCF RECON,ioos:station:SCCF:56:1,2017-10-13T06:00:00Z,26.4645,-82.1044,2.48,1111122 
SCCF RECON,ioos:station:SCCF:56:1,2017-10-13T07:00:00Z,26.4645,-82.1044,2.61,1111122 
SCCF RECON,ioos:station:SCCF:56:1,2017-10-13T08:00:00Z,26.4645,-82.1044,2.63,1111122 
SCCF RECON,ioos:station:SCCF:56:1,2017-10-13T09:00:00Z,26.4645,-82.1044,3.48,1111122 
SCCF RECON,ioos:station:SCCF:56:1,2017-10-13T10:00:00Z,26.4645,-82.1044,2.88,1111122 
SCCF RECON,ioos:station:SCCF:56:1,2017-10-13T11:00:00Z,26.4645,-82.1044,2.78,1111122 
SCCF RECON,ioos:station:SCCF:56:1,2017-10-13T12:00:00Z,26.4645,-82.1044,3.04,1111122 
SCCF RECON,ioos:station:SCCF:56:1,2017-10-13T13:00:00Z,26.4645,-82.1044,3.05,1111122 
SCCF RECON,ioos:station:SCCF:56:1,2017-10-13T14:00:00Z,26.4645,-82.1044,3.04,1111122 
SCCF RECON,ioos:station:SCCF:56:1,2017-10-13T15:00:00Z,26.4645,-82.1044,3.53,1111122 
SCCF RECON,ioos:station:SCCF:56:1,2017-10-13T16:00:00Z,26.4645,-82.1044,3.66,1111122 
SCCF RECON,ioos:station:SCCF:56:1,2017-10-13T17:00:00Z,26.4645,-82.1044,3.44,1111122 
SCCF RECON,ioos:station:SCCF:56:1,2017-10-13T18:00:00Z,26.4645,-82.1044,3.45,1111122 
SCCF RECON,ioos:station:SCCF:56:1,2017-10-13T19:00:00Z,26.4645,-82.1044,3.5,1111122 
SCCF RECON,ioos:station:SCCF:56:1,2017-10-13T20:00:00Z,26.4645,-82.1044,3.6,1111122 
SCCF RECON,ioos:station:SCCF:56:1,2017-10-13T21:00:00Z,26.4645,-82.1044,2.76,1111122 
SCCF RECON,ioos:station:SCCF:56:1,2017-10-13T22:00:00Z,26.4645,-82.1044,2.45,1111122 
SCCF RECON,ioos:station:SCCF:56:1,2017-10-14T04:00:00Z,26.4645,-82.1044,2.52,1111122 
SCCF RECON,ioos:station:SCCF:56:1,2017-10-14T05:00:00Z,26.4645,-82.1044,2.43,1111122 
SCCF RECON,ioos:station:SCCF:56:1,2017-10-14T06:00:00Z,26.4645,-82.1044,2.19,1111122 
SCCF RECON,ioos:station:SCCF:56:1,2017-10-14T07:00:00Z,26.4645,-82.1044,2.43,1111122 
SCCF RECON,ioos:station:SCCF:56:1,2017-10-14T08:00:00Z,26.4645,-82.1044,2.32,1111122 
SCCF RECON,ioos:station:SCCF:56:1,2017-10-14T09:00:00Z,26.4645,-82.1044,2.29,1111122 
SCCF RECON,ioos:station:SCCF:56:1,2017-10-14T10:00:00Z,26.4645,-82.1044,2.42,1111122 
SCCF RECON,ioos:station:SCCF:56:1,2017-10-14T11:00:00Z,26.4645,-82.1044,2.48,1111122 
SCCF RECON,ioos:station:SCCF:56:1,2017-10-14T12:00:00Z,26.4645,-82.1044,2.16,1111122 
SCCF RECON,ioos:station:SCCF:56:1,2017-10-14T13:00:00Z,26.4645,-82.1044,2.09,1111122 
SCCF RECON,ioos:station:SCCF:56:1,2017-10-14T14:00:00Z,26.4645,-82.1044,2.59,1111122 
SCCF RECON,ioos:station:SCCF:56:1,2017-10-14T15:00:00Z,26.4645,-82.1044,3.0,1111122 
SCCF RECON,ioos:station:SCCF:56:1,2017-10-14T16:00:00Z,26.4645,-82.1044,2.97,1111122 
SCCF RECON,ioos:station:SCCF:56:1,2017-10-14T17:00:00Z,26.4645,-82.1044,3.82,1111122 
SCCF RECON,ioos:station:SCCF:56:1,2017-10-14T18:00:00Z,26.4645,-82.1044,3.66,1111122 
SCCF RECON,ioos:station:SCCF:56:1,2017-10-14T19:00:00Z,26.4645,-82.1044,3.38,1111122 
SCCF RECON,ioos:station:SCCF:56:1,2017-10-14T20:00:00Z,26.4645,-82.1044,3.52,1111122 
SCCF RECON,ioos:station:SCCF:56:1,2017-10-14T21:00:00Z,26.4645,-82.1044,3.71,1111122 
SCCF RECON,ioos:station:SCCF:56:1,2017-10-14T22:00:00Z,26.4645,-82.1044,3.49,1111122 
SCCF RECON,ioos:station:SCCF:56:1,2017-10-15T04:00:00Z,26.4645,-82.1044,2.74,1111122 
SCCF RECON,ioos:station:SCCF:56:1,2017-10-15T05:00:00Z,26.4645,-82.1044,2.51,1111122 
SCCF RECON,ioos:station:SCCF:56:1,2017-10-15T06:00:00Z,26.4645,-82.1044,2.22,1111122 
SCCF RECON,ioos:station:SCCF:56:1,2017-10-15T07:00:00Z,26.4645,-82.1044,2.59,1111122 
SCCF RECON,ioos:station:SCCF:56:1,2017-10-15T08:00:00Z,26.4645,-82.1044,2.68,1111122 
SCCF RECON,ioos:station:SCCF:56:1,2017-10-15T09:00:00Z,26.4645,-82.1044,2.75,1111122 
SCCF RECON,ioos:station:SCCF:56:1,2017-10-15T10:00:00Z,26.4645,-82.1044,2.28,1111122 
SCCF RECON,ioos:station:SCCF:56:1,2017-10-15T11:00:00Z,26.4645,-82.1044,2.61,1111122 
SCCF RECON,ioos:station:SCCF:56:1,2017-10-15T12:00:00Z,26.4645,-82.1044,2.59,1111122 
SCCF RECON,ioos:station:SCCF:56:1,2017-10-15T13:00:00Z,26.4645,-82.1044,2.43,1111122 
SCCF RECON,ioos:station:SCCF:56:1,2017-10-15T14:00:00Z,26.4645,-82.1044,2.39,1111122 
SCCF RECON,ioos:station:SCCF:56:1,2017-10-15T15:00:00Z,26.4645,-82.1044,2.12,1111122 
SCCF RECON,ioos:station:SCCF:56:1,2017-10-15T16:00:00Z,26.4645,-82.1044,2.01,1111122 
SCCF RECON,ioos:station:SCCF:56:1,2017-10-15T17:00:00Z,26.4645,-82.1044,2.71,1111122 
SCCF RECON,ioos:station:SCCF:56:1,2017-10-15T18:00:00Z,26.4645,-82.1044,3.62,1111122 
SCCF RECON,ioos:station:SCCF:56:1,2017-10-15T19:00:00Z,26.4645,-82.1044,3.75,1111122 
SCCF RECON,ioos:station:SCCF:56:1,2017-10-15T20:00:00Z,26.4645,-82.1044,3.79,1111122 
SCCF RECON,ioos:station:SCCF:56:1,2017-10-15T21:00:00Z,26.4645,-82.1044,3.79,1111122 
SCCF RECON,ioos:station:SCCF:56:1,2017-10-15T22:00:00Z,26.4645,-82.1044,3.39,1111122 